Regional Weather Roundup
Issued by NWS

Home | Current Version | Previous Version | Graphics & Text | Print | Product List | Glossary On
Versions: 1 2 3 4 5 6 7 8 9 10 11 12 13 14 15 16 17 18 19 20 21 22 23 24 25 26 27 28 29 30 31 32 33 34 35 36 37 38 39 40 41 42 43 44 45 46 47 48 49 50
000
ASUS43 KDTX 221501
RWRMI
MICHIGAN HOURLY REGIONAL WEATHER ROUNDUP
NATIONAL WEATHER SERVICE DETROIT/PONTIAC MI
1100 AM EDT FRI MAY 22 2015

NOTE: "FAIR" INDICATES FEW OR NO CLOUDS BELOW 12,000 FEET WITH NO
SIGNIFICANT WEATHER AND/OR OBSTRUCTION TO VISIBILITY.

MIZ047>049-052>055-059>063-066>070-074>076-081>083-221600-
SOUTHEAST LOWER MICHIGAN

CITY           SKY/WX    TMP DP  RH WIND       PRES   REMARKS
ADRIAN         SUNNY     61  23  23 NE8       30.18R
ALMA           SUNNY     55  26  32 N8        30.20R
ANN ARBOR      SUNNY     60  28  29 N10G18    30.17R
BAD AXE        SUNNY     50  31  47 N13       30.18S
CARO           SUNNY     54  34  46 N8        30.18R
DETROIT CITY   SUNNY     58  25  28 NW10      30.16R
DETROIT        SUNNY     61  27  27 N14       30.17R
FLINT          SUNNY     57  35  43 N13       30.19R
GROSSE ILE     SUNNY     61  19  20 N14G20    30.15R
HILLSDALE      SUNNY     59  28  29 NW9       30.19R
HOWELL         SUNNY     56  26  31 N6        30.18R

CITY           SKY/WX    TMP DP  RH WIND       PRES   REMARKS
JACKSON        SUNNY     58  26  29 NE14      30.19R
LAMBERTVILLE   SUNNY     61  27  27 N6        30.18R
LANSING        SUNNY     57  26  30 N12       30.20R
LAPEER         FAIR      53  34  47 N9        30.18R
MASON          SUNNY     55  27  34 N13       30.19R
MONROE         SUNNY     61  28  29 N10       30.15R
MT. CLEMENS    MOSUNNY   56  35  44 NW10G21   30.14R
PONTIAC        SUNNY     56  29  35 N13       30.16R
PORT HOPE        N/A     48  36  63 N6        30.18R
PORT HURON     MOSUNNY   52  41  66 N14       30.17R
TRI CITIES     SUNNY     55  27  34 VRB3      30.20S
MIDLAND        FAIR      56  26  31 NW8       30.19S
TROY           SUNNY     58  27  30 N13G18    30.18R
SAGINAW HB     SUNNY     54  30  40 NE6       30.19R
$$
MIZ043>046-050>051-056>058-064>065-071>073-077>080-221600-
SOUTHWEST LOWER MICHIGAN

CITY           SKY/WX    TMP DP  RH WIND       PRES   REMARKS
BATTLE CREEK   SUNNY     60  25  26 NE14      30.20R
BENTON HARBOR  SUNNY     60  35  39 E7        30.20R
BIG RAPIDS     SUNNY     55  16  21 N10G16    30.20R
COLDWATER      SUNNY     59  29  31 N8        30.19R
FREMONT        FAIR      56  19  23 NE3       30.21R
HOLLAND        SUNNY     60  28  29 VRB6      30.21S
GRAND RAPIDS   SUNNY     60  26  27 NE7       30.20R
IONIA          FAIR      58  26  29 N3        30.20R
KALAMAZOO      SUNNY     61  25  25 N7        30.20R
LUDINGTON      SUNNY     58  26  29 NW7       30.23R
MARSHALL       SUNNY     59  24  26 N8        30.19R
MOUNT PLEASANT SUNNY     54  26  34 N6        30.19S
MUSKEGON       SUNNY     60  23  24 N6        30.22R
SOUTH HAVEN    SUNNY     60  24  24 E6        30.20R
$$
MIZ016>042-221600-
NORTHERN LOWER MICHIGAN

CITY           SKY/WX    TMP DP  RH WIND       PRES   REMARKS
ALPENA         SUNNY     51  22  31 N22G28    30.19R
BEAVER ISLAND  SUNNY     46  21  37 NW10      30.24R
BELLAIRE       SUNNY     52  31  46 CALM      30.22S
CADILLAC       SUNNY     55  22  28 NW9       30.19R
CHARLEVOIX     SUNNY     46  33  60 N7        30.27R
FRANKFORT      SUNNY     56  20  25 N5        30.23R
GAYLORD        SUNNY     49  21  33 NW10      30.19R
HARBOR SPRINGS SUNNY     48  32  53 S3        30.22S
HOUGHTON LAKE  SUNNY     52  29  41 SW7       30.19S
MANISTEE       SUNNY     52  27  37 NW9       30.25R
OSCODA         SUNNY     54  23  30 NW17G26   30.17S
PELLSTON       SUNNY     50  22  33 N14       30.22R
ROGERS CITY    SUNNY     44  28  54 N10       30.22R
TRAVERSE CITY  SUNNY     50  31  48 N8        30.22R
$$
MIZ007>008-015-221600-
EASTERN UPPER MICHIGAN

CITY           SKY/WX    TMP DP  RH WIND       PRES   REMARKS
KINROSS        SUNNY     43  23  45 NW10      30.21R
NEWBERRY       SUNNY     44  22  40 N8G22     30.23R
S. S. MARIE    SUNNY     42  22  44 NW14      30.21R
$$
MIZ004>006-011>014-085-221600-
CENTRAL UPPER MICHIGAN

CITY           SKY/WX    TMP DP  RH WIND       PRES   REMARKS
MANISTIQUE     SUNNY     49  22  34 N8        30.23S
ESCANABA       SUNNY     50  28  43 SE9       30.23S
MENOMINEE      SUNNY     48  30  49 SE9       30.24R
SAWYER-GWINN   SUNNY     50  25  37 E6        30.22R
$$
MIZ001>003-009>011-084-221600-
WESTERN UPPER MICHIGAN

CITY           SKY/WX    TMP DP  RH WIND       PRES   REMARKS
IRON MOUNTAIN  SUNNY     54  21  27 CALM      30.21S
HOUGHTON       SUNNY     49  30  48 E8        30.22R
COPPER HARBOR    N/A     46  31  55 CALM      30.24R
IRONWOOD       SUNNY     57  27  30 NW9       30.19S
$$

ABBREVIATIONS USED IN REMARKS
   TC - TEMPERATURE IN CELSIUS
  WCI - WIND CHILL INDEX
   HX - HEAT INDEX
  VSB - VISIBILITY



USA.gov is the U.S. government's official web portal to all federal, state and local government web resources and services.